{"data":{"norad_id":56305,"intl_designator":"2023-056V","name":"STARLINK-30094","alt_names":[],"object_type":"PAYLOAD","status":"ACTIVE","operator":null,"country":"US","launch_date":"2023-04-19","launch_site_code":"AFETR","launch_vehicle":null,"mission":null,"orbit_class":"UNKNOWN","rcs_meters":null,"size_class":null,"mass_kg":null,"dimensions":null,"purposes":["comms"],"wikipedia_slug":null,"has_3d_model":false,"image_url":null,"decayed_at":null,"tle_current":{"epoch":"2026-05-25T00:14:27.507840Z","epoch_age_seconds":70360,"freshness":"FRESH","line1":"1 56305U 23056V   26145.01004060 -.00009821  00000+0 -34841-3 0  9998","line2":"2 56305  43.0059 137.6854 0003995 293.9753  66.0680 15.27513348171778","mean_motion":15.27513348,"eccentricity":0.0003995,"inclination_deg":43.0059,"raan_deg":137.6854,"arg_perigee_deg":293.9753,"mean_anomaly_deg":66.068,"bstar":-0.00034841,"rev_number":17177,"period_min":94.270861978746,"perigee_km":480.50755978216,"apogee_km":485.98980694317,"semimajor_km":6861.3856833627,"source":"CELESTRAK","updated_at":"2026-05-25T13:38:17.998013Z"}}}